| time (UTC) | temp F | wind direction | speed knots | gust knots | rain 1hr in | rain 24hr in | rain mn in | humidity % | barometer mb |
| 20260904090204 | 66 | 258 | 2.6 | 8.7 | 0.02 | 0.02 | 0.02 | 71 | 1009.8 |
| 20260904085705 | 67 | 231 | 4.3 | 7.8 | 0.02 | 0.02 | 0.02 | 71 | 1009.6 |
| 20260904085204 | 67 | 228 | 2.6 | 8.7 | 0.02 | 0.02 | 0.02 | 70 | 1009.6 |
| 20260904084704 | 67 | 231 | 3.5 | 8.7 | 0.02 | 0.02 | 0.02 | 71 | 1009.4 |
| 20260904083704 | 67 | 241 | 2.6 | 13.9 | 0.02 | 0.02 | 0.02 | 72 | 1009.4 |
| 20260904083204 | 67 | 240 | 3.5 | 13.9 | 0.02 | 0.02 | 0.02 | 74 | 1009.3 |
| 20260904082704 | 69 | 254 | 5.2 | 13.9 | 0.02 | 0.02 | 0.00 | 75 | 1009.1 |
| 20260904081703 | 70 | 188 | 3.5 | 14.8 | 0.00 | 0.00 | 0.00 | 76 | 1008.4 |
| 20260904080204 | 70 | 252 | 4.3 | 13.9 | 0.00 | 0.00 | 0.00 | 77 | 1008.2 |
| 20260904075704 | 71 | 289 | 5.2 | 13.9 | 0.00 | 0.00 | 0.00 | 77 | 1008.1 |
| 20260904075204 | 71 | 221 | 5.2 | 13.9 | 0.00 | 0.00 | 0.00 | 77 | 1008.0 |
| 20260904074704 | 71 | 243 | 2.6 | 11.3 | 0.00 | 0.00 | 0.00 | 77 | 1007.9 |
| 20260904074204 | 71 | 178 | 4.3 | 11.3 | 0.00 | 0.00 | 0.00 | 77 | 1008.0 |
| 20260904073705 | 71 | 306 | 2.6 | 11.3 | 0.00 | 0.00 | 0.00 | 77 | 1007.9 |
| 20260904073206 | 71 | 104 | 3.5 | 11.3 | 0.00 | 0.00 | 0.00 | 77 | 1008.0 |
| 20260904072704 | 71 | 240 | 4.3 | 12.2 | 0.00 | 0.00 | 0.00 | 77 | 1007.9 |
| 20260904072205 | 70 | 244 | 3.5 | 12.2 | 0.00 | 0.00 | 0.00 | 77 | 1007.8 |
| 20260904070204 | 70 | 159 | 3.5 | 8.7 | 0.00 | 0.00 | 0.00 | 77 | 1007.7 |
| 20260904065706 | 70 | 226 | 3.5 | 11.3 | 0.00 | 0.00 | 0.00 | 77 | 1007.7 |
| 20260904065204 | 70 | 272 | 3.5 | 11.3 | 0.00 | 0.00 | 0.00 | 77 | 1007.9 |
| 20260904064714 | 69 | 219 | 3.5 | 11.3 | 0.00 | 0.00 | 0.00 | 77 | 1007.8 |
| 20260904064209 | 69 | 231 | 3.5 | 9.6 | 0.00 | 0.00 | 0.00 | 77 | 1007.8 |
| 20260904063704 | 69 | 216 | 2.6 | 10.4 | 0.00 | 0.00 | 0.00 | 77 | 1007.9 |
| 20260904063205 | 69 | 282 | 3.5 | 11.3 | 0.00 | 0.00 | 0.00 | 77 | 1007.8 |
| 20260904062704 | 69 | 131 | 3.5 | 11.3 | 0.00 | 0.00 | 0.00 | 77 | 1007.8 |
| 20260904061703 | 69 | 142 | 3.5 | 9.6 | 0.00 | 0.00 | 0.00 | 77 | 1008.2 |
| 20260904061205 | 69 | 248 | 3.5 | 7.8 | 0.00 | 0.00 | 0.00 | 77 | 1008.2 |
| 20260904060703 | 69 | 272 | 3.5 | 10.4 | 0.00 | 0.00 | 0.00 | 77 | 1008.3 |
| 20260904060204 | 69 | 183 | 1.7 | 10.4 | 0.00 | 0.00 | 0.00 | 77 | 1008.3 |
| 20260904055704 | 69 | 97 | 2.6 | 10.4 | 0.00 | 0.00 | 0.00 | 77 | 1008.3 |
| 20260904055204 | 69 | 204 | 2.6 | 10.4 | 0.00 | 0.00 | 0.00 | 77 | 1008.2 |
| 20260904054704 | 69 | 148 | 2.6 | 12.2 | 0.00 | 0.00 | 0.00 | 77 | 1008.1 |
| 20260904054203 | 69 | 250 | 2.6 | 12.2 | 0.00 | 0.00 | 0.00 | 77 | 1008.0 |
| 20260904053704 | 69 | 268 | 1.7 | 12.2 | 0.00 | 0.00 | 0.00 | 77 | 1008.1 |
| 20260904053204 | 69 | 230 | 4.3 | 12.2 | 0.00 | 0.00 | 0.00 | 77 | 1008.1 |
| 20260904052704 | 69 | 238 | 2.6 | 12.2 | 0.00 | 0.00 | 0.00 | 77 | 1008.1 |
| 20260904052204 | 69 | 180 | 2.6 | 9.6 | 0.00 | 0.00 | 0.00 | 77 | 1007.8 |
| 20260904051704 | 69 | 230 | 1.7 | 13.0 | 0.00 | 0.00 | 0.00 | 77 | 1008.0 |
| 20260904051204 | 69 | 226 | 2.6 | 13.9 | 0.00 | 0.00 | 0.00 | 77 | 1008.2 |
| 20260904050705 | 69 | 206 | 1.7 | 13.9 | 0.00 | 0.00 | 0.00 | 77 | 1008.2 |
| 20260904050204 | 69 | 116 | 3.5 | 13.9 | 0.00 | 0.00 | 0.00 | 77 | 1008.4 |
| 20260904045705 | 69 | 250 | 5.2 | 8.7 | 0.00 | 0.00 | 0.00 | 77 | 1008.4 |
| 20260904045204 | 69 | 179 | 2.6 | 7.8 | 0.00 | 0.00 | 0.00 | 77 | 1008.6 |
| 20260904044704 | 69 | 259 | 2.6 | 9.6 | 0.00 | 0.00 | 0.00 | 77 | 1008.6 |
| 20260904044204 | 69 | 272 | 2.6 | 9.6 | 0.00 | 0.00 | 0.00 | 77 | 1008.6 |
| 20260904043704 | 69 | 148 | 2.6 | 9.6 | 0.00 | 0.00 | 0.00 | 77 | 1008.6 |
| 20260904043203 | 69 | 227 | 3.5 | 8.7 | 0.00 | 0.00 | 0.00 | 77 | 1008.7 |
| 20260904042705 | 69 | 216 | 2.6 | 10.4 | 0.00 | 0.00 | 0.00 | 77 | 1008.9 |
| 20260904042205 | 69 | 252 | 3.5 | 10.4 | 0.00 | 0.00 | 0.00 | 77 | 1008.9 |
| 20260904041705 | 69 | 151 | 2.6 | 8.7 | 0.00 | 0.00 | 0.00 | 77 | 1008.9 |
| 20260904041204 | 69 | 243 | 1.7 | 8.7 | 0.00 | 0.00 | 0.00 | 77 | 1009.0 |
| 20260904040704 | 69 | 145 | 1.7 | 9.6 | 0.00 | 0.00 | 0.00 | 77 | 1008.9 |
| 20260904040204 | 69 | 189 | 2.6 | 9.6 | 0.00 | 0.00 | 0.00 | 77 | 1008.9 |
| 20260904035704 | 69 | 188 | 2.6 | 9.6 | 0.00 | 0.00 | 0.00 | 77 | 1008.9 |
| 20260904035204 | 69 | 262 | 1.7 | 9.6 | 0.00 | 0.00 | 0.00 | 77 | 1008.9 |
| 20260904034704 | 69 | 235 | 3.5 | 13.0 | 0.00 | 0.00 | 0.00 | 77 | 1009.1 |
| 20260904034204 | 69 | 192 | 3.5 | 13.0 | 0.00 | 0.00 | 0.00 | 77 | 1009.1 |
| 20260904033704 | 69 | 189 | 2.6 | 13.0 | 0.00 | 0.00 | 0.00 | 77 | 1009.2 |
| 20260904033205 | 69 | 172 | 3.5 | 12.2 | 0.00 | 0.00 | 0.00 | 77 | 1009.1 |
| 20260904032706 | 69 | 152 | 3.5 | 12.2 | 0.00 | 0.00 | 0.00 | 77 | 1009.1 |
| 20260904032205 | 69 | 209 | 1.7 | 12.2 | 0.00 | 0.00 | 0.00 | 77 | 1009.0 |
| 20260904031704 | 69 | 178 | 2.6 | 7.8 | 0.00 | 0.00 | 0.00 | 77 | 1009.2 |
| 20260904031204 | 69 | 254 | 2.6 | 10.4 | 0.00 | 0.00 | 0.00 | 77 | 1009.4 |
| 20260904030704 | 69 | 89 | 2.6 | 10.4 | 0.00 | 0.00 | 0.00 | 77 | 1009.5 |
| 20260904030204 | 69 | 192 | 3.5 | 10.4 | 0.00 | 0.00 | 0.00 | 77 | 1009.7 |
| 20260904025704 | 69 | 217 | 3.5 | 10.4 | 0.00 | 0.00 | 0.00 | 77 | 1009.7 |
| 20260904024706 | 69 | 186 | 4.3 | 8.7 | 0.00 | 0.00 | 0.00 | 77 | 1009.9 |
| 20260904024207 | 69 | 178 | 1.7 | 11.3 | 0.00 | 0.00 | 0.00 | 77 | 1009.9 |
| 20260904023706 | 69 | 257 | 2.6 | 11.3 | 0.00 | 0.00 | 0.00 | 77 | 1009.8 |
| 20260904023207 | 69 | 44 | 2.6 | 8.7 | 0.00 | 0.00 | 0.00 | 77 | 1009.8 |
| 20260904022703 | 69 | 158 | 3.5 | 13.0 | 0.00 | 0.00 | 0.00 | 77 | 1009.8 |
| 20260904021703 | 69 | 151 | 2.6 | 9.6 | 0.00 | 0.00 | 0.00 | 77 | 1010.0 |
| 20260904021204 | 69 | 204 | 2.6 | 10.4 | 0.00 | 0.00 | 0.00 | 77 | 1010.1 |
| 20260904015704 | 69 | 241 | 1.7 | 13.9 | 0.00 | 0.00 | 0.00 | 77 | 1010.1 |
| 20260904015204 | 69 | 210 | 2.6 | 13.9 | 0.00 | 0.00 | 0.00 | 77 | 1010.2 |
| 20260904014710 | 69 | 110 | 2.6 | 13.9 | 0.00 | 0.00 | 0.00 | 77 | 1010.3 |
| 20260904014204 | 69 | 186 | 3.5 | 10.4 | 0.00 | 0.00 | 0.00 | 77 | 1010.4 |
| 20260904013704 | 69 | 204 | 2.6 | 10.4 | 0.00 | 0.00 | 0.00 | 77 | 1010.5 |
| 20260904013204 | 69 | 140 | 1.7 | 9.6 | 0.00 | 0.00 | 0.00 | 77 | 1010.6 |
| 20260904012704 | 69 | 180 | 2.6 | 9.6 | 0.00 | 0.00 | 0.00 | 77 | 1010.6 |
| 20260904012204 | 69 | 264 | 2.6 | 9.6 | 0.00 | 0.00 | 0.00 | 77 | 1010.7 |
| 20260904011704 | 69 | 20 | 2.6 | 5.2 | 0.00 | 0.00 | 0.00 | 77 | 1010.6 |
| 20260904011204 | 69 | 172 | 1.7 | 6.1 | 0.00 | 0.00 | 0.00 | 77 | 1010.7 |
| 20260904010704 | 69 | 250 | 1.7 | 7.8 | 0.00 | 0.00 | 0.00 | 77 | 1010.7 |
| 20260904010203 | 69 | 220 | 1.7 | 8.7 | 0.00 | 0.00 | 0.00 | 77 | 1010.8 |
| 20260904005704 | 68 | 173 | 2.6 | 8.7 | 0.00 | 0.00 | 0.00 | 77 | 1010.9 |
| 20260904005204 | 68 | 228 | 3.5 | 6.1 | 0.00 | 0.00 | 0.00 | 77 | 1011.0 |
| 20260904004705 | 68 | 97 | 1.7 | 7.8 | 0.00 | 0.00 | 0.00 | 77 | 1011.1 |
| 20260904004205 | 68 | 189 | 1.7 | 7.8 | 0.00 | 0.00 | 0.00 | 77 | 1011.2 |
| 20260904003704 | 68 | 183 | 0.9 | 7.8 | 0.00 | 0.00 | 0.00 | 77 | 1011.3 |
| 20260904003204 | 68 | 142 | 1.7 | 7.8 | 0.00 | 0.00 | 0.00 | 77 | 1011.4 |
| 20260904002704 | 68 | 176 | 0.9 | 6.1 | 0.00 | 0.00 | 0.00 | 77 | 1011.5 |
| 20260904002204 | 68 | 193 | 1.7 | 10.4 | 0.00 | 0.00 | 0.00 | 77 | 1011.6 |
| 20260904001705 | 68 | 183 | 0.9 | 10.4 | 0.00 | 0.00 | 0.00 | 77 | 1011.7 |
| 20260904001204 | 68 | 202 | 1.7 | 8.7 | 0.00 | 0.00 | 0.00 | 77 | 1011.8 |
| 20260904000704 | 68 | 180 | 1.7 | 8.7 | 0.00 | 0.00 | 0.00 | 77 | 1012.0 |
| 20260904000204 | 68 | 221 | 0.9 | 8.7 | 0.00 | 0.00 | 0.00 | 77 | 1012.1 |
| 20260903235704 | 68 | 278 | 2.6 | 7.8 | 0.00 | 0.00 | 0.00 | 77 | 1012.2 |
| 20260903235204 | 68 | 193 | 2.6 | 7.8 | 0.00 | 0.00 | 0.00 | 77 | 1012.2 |
| 20260903234714 | 68 | 130 | 2.6 | 8.7 | 0.00 | 0.00 | 0.00 | 77 | 1012.2 |
| 20260903234204 | 68 | 102 | 1.7 | 8.7 | 0.00 | 0.00 | 0.00 | 77 | 1012.2 |
| 20260903233707 | 68 | 219 | 0.9 | 8.7 | 0.00 | 0.00 | 0.00 | 77 | 1012.1 |
| 20260903233204 | 68 | 237 | 1.7 | 3.5 | 0.00 | 0.00 | 0.00 | 77 | 1012.2 |
| 20260903231204 | 69 | 169 | 0.0 | 5.2 | 0.00 | 0.00 | 0.00 | 77 | 1012.4 |
| 20260903230704 | 69 | 227 | 0.9 | 5.2 | 0.00 | 0.00 | 0.00 | 77 | 1012.5 |
| 20260903230233 | 69 | 193 | 1.7 | 6.1 | 0.00 | 0.00 | 0.00 | 77 | 1012.5 |
| 20260903225203 | 69 | 186 | 1.7 | 8.7 | 0.00 | 0.00 | 0.00 | 77 | 1012.4 |
| 20260903224704 | 69 | 207 | 1.7 | 8.7 | 0.00 | 0.00 | 0.00 | 77 | 1012.4 |
| 20260903224204 | 69 | 206 | 2.6 | 8.7 | 0.00 | 0.00 | 0.00 | 77 | 1012.4 |
| 20260903223704 | 69 | 179 | 1.7 | 8.7 | 0.00 | 0.00 | 0.00 | 77 | 1012.6 |
| 20260903223206 | 69 | 182 | 1.7 | 8.7 | 0.00 | 0.00 | 0.00 | 77 | 1012.8 |
| 20260903222704 | 70 | 234 | 2.6 | 9.6 | 0.00 | 0.00 | 0.00 | 77 | 1012.8 |
| 20260903222204 | 70 | 258 | 2.6 | 10.4 | 0.00 | 0.00 | 0.00 | 77 | 1012.8 |
| 20260903221204 | 70 | 179 | 2.6 | 9.6 | 0.00 | 0.00 | 0.00 | 77 | 1012.9 |
| 20260903220704 | 70 | 226 | 3.5 | 9.6 | 0.00 | 0.00 | 0.00 | 77 | 1013.0 |
| 20260903220204 | 70 | 195 | 2.6 | 8.7 | 0.00 | 0.00 | 0.00 | 77 | 1013.0 |
| 20260903215704 | 70 | 175 | 1.7 | 8.7 | 0.00 | 0.00 | 0.00 | 77 | 1013.1 |
| 20260903215204 | 70 | 220 | 0.9 | 8.7 | 0.00 | 0.00 | 0.00 | 77 | 1013.1 |
| 20260903214704 | 70 | 247 | 2.6 | 8.7 | 0.00 | 0.00 | 0.00 | 77 | 1013.1 |
| 20260903213704 | 70 | 210 | 2.6 | 8.7 | 0.00 | 0.00 | 0.00 | 77 | 1013.2 |
| 20260903213203 | 70 | 268 | 3.5 | 6.1 | 0.00 | 0.00 | 0.00 | 77 | 1013.2 |
| 20260903212704 | 70 | 178 | 1.7 | 7.8 | 0.00 | 0.00 | 0.00 | 77 | 1013.2 |
| 20260903212205 | 70 | 180 | 1.7 | 9.6 | 0.00 | 0.00 | 0.00 | 77 | 1013.1 |
| 20260903211205 | 70 | 264 | 2.6 | 10.4 | 0.00 | 0.00 | 0.00 | 77 | 1013.4 |
| 20260903210704 | 70 | 257 | 1.7 | 10.4 | 0.00 | 0.00 | 0.00 | 77 | 1013.3 |
| 20260903210204 | 70 | 161 | 2.6 | 7.8 | 0.00 | 0.00 | 0.00 | 77 | 1013.4 |
| 20260903205704 | 70 | 186 | 2.6 | 7.8 | 0.00 | 0.00 | 0.00 | 77 | 1013.5 |
| 20260903205204 | 70 | 261 | 1.7 | 7.8 | 0.00 | 0.00 | 0.00 | 77 | 1013.5 |
| 20260903204704 | 70 | 212 | 1.7 | 7.8 | 0.00 | 0.00 | 0.00 | 77 | 1013.4 |
| 20260903204203 | 70 | 180 | 2.6 | 7.8 | 0.00 | 0.00 | 0.00 | 77 | 1013.4 |
| 20260903203704 | 70 | 203 | 0.9 | 5.2 | 0.00 | 0.00 | 0.00 | 77 | 1013.4 |
| 20260903203203 | 70 | 185 | 1.7 | 6.1 | 0.00 | 0.00 | 0.00 | 77 | 1013.5 |
| 20260903202704 | 70 | 125 | 1.7 | 6.1 | 0.00 | 0.00 | 0.00 | 77 | 1013.5 |
| 20260903202204 | 70 | 162 | 0.9 | 6.1 | 0.00 | 0.00 | 0.00 | 77 | 1013.5 |
| 20260903201214 | 70 | 235 | 0.9 | 6.1 | 0.00 | 0.00 | 0.00 | 77 | 1013.4 |
| 20260903200704 | 70 | 233 | 1.7 | 6.1 | 0.00 | 0.00 | 0.00 | 77 | 1013.5 |
| 20260903195704 | 71 | 262 | 1.7 | 7.8 | 0.00 | 0.00 | 0.00 | 76 | 1013.5 |
| 20260903195204 | 71 | 200 | 0.9 | 7.8 | 0.00 | 0.00 | 0.00 | 76 | 1013.6 |
| 20260903194704 | 71 | 118 | 1.7 | 7.8 | 0.00 | 0.00 | 0.00 | 76 | 1013.5 |
| 20260903194204 | 71 | 133 | 1.7 | 6.1 | 0.00 | 0.00 | 0.00 | 76 | 1013.6 |
| 20260903193704 | 71 | 231 | 1.7 | 6.1 | 0.00 | 0.00 | 0.00 | 76 | 1013.6 |
| 20260903193204 | 71 | 202 | 1.7 | 6.1 | 0.00 | 0.00 | 0.00 | 75 | 1013.6 |
| 20260903192705 | 72 | 90 | 1.7 | 9.6 | 0.00 | 0.00 | 0.00 | 75 | 1013.6 |
| 20260903192204 | 72 | 234 | 2.6 | 9.6 | 0.00 | 0.00 | 0.00 | 75 | 1013.6 |
| 20260903191704 | 72 | 199 | 1.7 | 6.1 | 0.00 | 0.00 | 0.00 | 75 | 1013.6 |
| 20260903190704 | 72 | 195 | 1.7 | 7.8 | 0.00 | 0.00 | 0.00 | 75 | 1013.6 |
| 20260903190209 | 73 | 199 | 1.7 | 7.8 | 0.00 | 0.00 | 0.00 | 74 | 1013.5 |
| 20260903185707 | 73 | 230 | 0.9 | 5.2 | 0.00 | 0.00 | 0.00 | 74 | 1013.4 |
| 20260903185204 | 73 | 157 | 1.7 | 4.3 | 0.00 | 0.00 | 0.00 | 74 | 1013.4 |
| 20260903184704 | 73 | 165 | 1.7 | 6.1 | 0.00 | 0.00 | 0.00 | 73 | 1013.4 |
| 20260903184204 | 74 | 193 | 1.7 | 8.7 | 0.00 | 0.00 | 0.00 | 73 | 1013.3 |
| 20260903183704 | 74 | 172 | 0.9 | 8.7 | 0.00 | 0.00 | 0.00 | 72 | 1013.3 |
| 20260903183204 | 74 | 137 | 1.7 | 8.7 | 0.00 | 0.00 | 0.00 | 72 | 1013.3 |
| 20260903181704 | 74 | 234 | 2.6 | 6.1 | 0.00 | 0.00 | 0.00 | 71 | 1013.2 |
| 20260903181204 | 75 | 183 | 1.7 | 6.1 | 0.00 | 0.00 | 0.00 | 71 | 1013.2 |
| 20260903180709 | 75 | 55 | 2.6 | 9.6 | 0.00 | 0.00 | 0.00 | 70 | 1013.2 |
| 20260903180204 | 75 | 254 | 1.7 | 9.6 | 0.00 | 0.00 | 0.00 | 70 | 1013.3 |
| 20260903175205 | 76 | 231 | 1.7 | 7.8 | 0.00 | 0.00 | 0.00 | 69 | 1013.3 |
| 20260903174204 | 76 | 209 | 1.7 | 9.6 | 0.00 | 0.00 | 0.00 | 69 | 1013.4 |
| 20260903173704 | 76 | 138 | 1.7 | 9.6 | 0.00 | 0.00 | 0.00 | 69 | 1013.4 |
| 20260903173204 | 76 | 210 | 2.6 | 7.8 | 0.00 | 0.00 | 0.00 | 69 | 1013.3 |
| 20260903172730 | 76 | 152 | 2.6 | 6.1 | 0.00 | 0.00 | 0.00 | 68 | 1013.2 |
| 20260903172204 | 76 | 188 | 1.7 | 9.6 | 0.00 | 0.00 | 0.00 | 69 | 1013.2 |
| 20260903171704 | 76 | 161 | 1.7 | 9.6 | 0.00 | 0.00 | 0.00 | 69 | 1013.3 |
| 20260903171240 | 76 | 248 | 1.7 | 7.8 | 0.00 | 0.00 | 0.00 | 68 | 1013.5 |
| 20260903170204 | 76 | 264 | 3.5 | 7.8 | 0.00 | 0.00 | 0.00 | 69 | 1013.4 |
| 20260903165704 | 76 | 179 | 1.7 | 7.8 | 0.00 | 0.00 | 0.00 | 69 | 1013.4 |
| 20260903165204 | 76 | 203 | 1.7 | 7.8 | 0.00 | 0.00 | 0.00 | 68 | 1013.3 |
| 20260903164704 | 76 | 240 | 1.7 | 11.3 | 0.00 | 0.00 | 0.00 | 67 | 1013.4 |
| 20260903164204 | 77 | 176 | 2.6 | 11.3 | 0.00 | 0.00 | 0.00 | 67 | 1013.5 |
| 20260903163203 | 77 | 148 | 2.6 | 8.7 | 0.00 | 0.00 | 0.00 | 67 | 1013.5 |
| 20260903162704 | 77 | 241 | 2.6 | 8.7 | 0.00 | 0.00 | 0.00 | 66 | 1013.5 |
| 20260903162204 | 77 | 224 | 1.7 | 8.7 | 0.00 | 0.00 | 0.00 | 66 | 1013.5 |
| 20260903161704 | 78 | 231 | 1.7 | 8.7 | 0.00 | 0.00 | 0.00 | 66 | 1013.5 |
| 20260903161204 | 77 | 237 | 0.9 | 8.7 | 0.00 | 0.00 | 0.00 | 68 | 1013.6 |
| 20260903160704 | 77 | 161 | 1.7 | 8.7 | 0.00 | 0.00 | 0.00 | 67 | 1013.5 |
| 20260903155704 | 78 | 114 | 0.9 | 7.8 | 0.00 | 0.00 | 0.00 | 67 | 1013.6 |
| 20260903155205 | 78 | 80 | 1.7 | 7.8 | 0.00 | 0.00 | 0.00 | 67 | 1013.7 |
| 20260903154204 | 78 | 188 | 3.5 | 5.2 | 0.00 | 0.00 | 0.00 | 66 | 1013.6 |
| 20260903153706 | 78 | 159 | 1.7 | 6.1 | 0.00 | 0.00 | 0.00 | 65 | 1013.8 |
| 20260903153204 | 78 | 173 | 1.7 | 6.1 | 0.00 | 0.00 | 0.00 | 65 | 1013.8 |
| 20260903152704 | 78 | 164 | 1.7 | 7.8 | 0.00 | 0.00 | 0.00 | 65 | 1013.8 |
| 20260903152204 | 78 | 149 | 1.7 | 7.8 | 0.00 | 0.00 | 0.00 | 64 | 1014.0 |
| 20260903151704 | 78 | 251 | 0.9 | 7.8 | 0.00 | 0.00 | 0.00 | 63 | 1014.0 |
| 20260903151204 | 78 | 168 | 1.7 | 12.2 | 0.00 | 0.00 | 0.00 | 63 | 1013.9 |
| 20260903150704 | 78 | 266 | 3.5 | 12.2 | 0.00 | 0.00 | 0.00 | 61 | 1013.9 |
| 20260903145704 | 79 | 234 | 2.6 | 6.1 | 0.00 | 0.00 | 0.00 | 60 | 1014.1 |
| 20260903145205 | 79 | 207 | 1.7 | 13.9 | 0.00 | 0.00 | 0.00 | 60 | 1014.0 |
| 20260903144704 | 79 | 154 | 1.7 | 13.9 | 0.00 | 0.00 | 0.00 | 59 | 1013.8 |
| 20260903143704 | 79 | 250 | 1.7 | 13.0 | 0.00 | 0.00 | 0.00 | 56 | 1014.0 |
| 20260903143206 | 79 | 254 | 3.5 | 13.9 | 0.00 | 0.00 | 0.00 | 57 | 1014.1 |
| 20260903142704 | 79 | 199 | 3.5 | 13.9 | 0.00 | 0.00 | 0.00 | 57 | 1014.1 |
| 20260903142204 | 79 | 178 | 2.6 | 13.9 | 0.00 | 0.00 | 0.00 | 56 | 1014.0 |
| 20260903141705 | 79 | 262 | 5.2 | 13.9 | 0.00 | 0.00 | 0.00 | 55 | 1014.0 |
| 20260903141205 | 79 | 175 | 4.3 | 11.3 | 0.00 | 0.00 | 0.00 | 56 | 1014.0 |
| 20260903140704 | 79 | 258 | 5.2 | 11.3 | 0.00 | 0.00 | 0.00 | 56 | 1014.1 |
| 20260903135204 | 80 | 219 | 2.6 | 16.5 | 0.00 | 0.00 | 0.00 | 56 | 1014.2 |
| 20260903134705 | 79 | 243 | 2.6 | 16.5 | 0.00 | 0.00 | 0.00 | 56 | 1014.2 |
| 20260903134204 | 79 | 220 | 5.2 | 13.9 | 0.00 | 0.00 | 0.00 | 58 | 1014.4 |
| 20260903133711 | 78 | 193 | 3.5 | 13.9 | 0.00 | 0.00 | 0.00 | 59 | 1014.4 |
| 20260903133204 | 78 | 247 | 3.5 | 13.9 | 0.00 | 0.00 | 0.00 | 60 | 1014.5 |
| 20260903132704 | 78 | 231 | 3.5 | 13.9 | 0.00 | 0.00 | 0.00 | 60 | 1014.6 |
| 20260903132204 | 78 | 240 | 3.5 | 11.3 | 0.00 | 0.00 | 0.00 | 61 | 1014.5 |
| 20260903131205 | 78 | 264 | 2.6 | 11.3 | 0.00 | 0.00 | 0.00 | 61 | 1014.4 |
| 20260903130704 | 78 | 235 | 3.5 | 12.2 | 0.00 | 0.00 | 0.00 | 60 | 1014.6 |
| 20260903130209 | 77 | 254 | 3.5 | 12.2 | 0.00 | 0.00 | 0.00 | 61 | 1014.7 |
| 20260903125704 | 77 | 216 | 2.6 | 9.6 | 0.00 | 0.00 | 0.00 | 62 | 1014.7 |
| 20260903125204 | 76 | 265 | 1.7 | 9.6 | 0.00 | 0.00 | 0.00 | 63 | 1014.8 |
| 20260903124705 | 76 | 293 | 3.5 | 7.8 | 0.00 | 0.00 | 0.00 | 63 | 1014.8 |
| 20260903124205 | 76 | 250 | 3.5 | 9.6 | 0.00 | 0.00 | 0.00 | 63 | 1014.8 |
| 20260903123703 | 76 | 233 | 3.5 | 9.6 | 0.00 | 0.00 | 0.00 | 63 | 1014.9 |
| 20260903123203 | 76 | 230 | 2.6 | 10.4 | 0.00 | 0.00 | 0.00 | 63 | 1014.9 |
| 20260903122704 | 75 | 237 | 3.5 | 11.3 | 0.00 | 0.00 | 0.00 | 64 | 1015.0 |
| 20260903122204 | 75 | 230 | 3.5 | 11.3 | 0.00 | 0.00 | 0.00 | 64 | 1014.9 |
| 20260903121704 | 75 | 230 | 3.5 | 13.0 | 0.00 | 0.00 | 0.00 | 65 | 1015.0 |
| 20260903121204 | 75 | 244 | 5.2 | 13.0 | 0.00 | 0.00 | 0.00 | 65 | 1015.0 |
| 20260903120704 | 75 | 254 | 5.2 | 13.0 | 0.00 | 0.00 | 0.00 | 65 | 1014.9 |
| 20260903120205 | 75 | 254 | 4.3 | 8.7 | 0.00 | 0.00 | 0.00 | 65 | 1014.8 |
| 20260903115204 | 75 | 251 | 2.6 | 10.4 | 0.00 | 0.00 | 0.00 | 67 | 1014.8 |
| 20260903114204 | 75 | 269 | 3.5 | 8.7 | 0.00 | 0.00 | 0.00 | 67 | 1015.0 |
| 20260903113704 | 75 | 200 | 1.7 | 8.7 | 0.00 | 0.00 | 0.00 | 68 | 1015.0 |
| 20260903113204 | 74 | 197 | 1.7 | 10.4 | 0.00 | 0.00 | 0.00 | 68 | 1015.1 |
| 20260903112704 | 74 | 252 | 1.7 | 10.4 | 0.00 | 0.00 | 0.00 | 68 | 1015.0 |
| 20260903111704 | 74 | 228 | 3.5 | 7.8 | 0.00 | 0.00 | 0.00 | 68 | 1015.0 |
| 20260903111204 | 74 | 180 | 3.5 | 10.4 | 0.00 | 0.00 | 0.00 | 68 | 1015.0 |
| 20260903110704 | 74 | 281 | 1.7 | 10.4 | 0.00 | 0.00 | 0.00 | 68 | 1015.0 |
| 20260903110204 | 74 | 220 | 2.6 | 10.4 | 0.00 | 0.00 | 0.00 | 69 | 1015.1 |
| 20260903105205 | 73 | 247 | 3.5 | 12.2 | 0.00 | 0.01 | 0.00 | 69 | 1015.3 |
| 20260903104704 | 73 | 190 | 2.6 | 14.8 | 0.00 | 0.01 | 0.00 | 69 | 1015.2 |
| 20260903104204 | 73 | 265 | 3.5 | 14.8 | 0.00 | 0.01 | 0.00 | 69 | 1015.2 |
| 20260903103204 | 73 | 248 | 7.8 | 12.2 | 0.00 | 0.01 | 0.00 | 68 | 1015.2 |
| 20260903102705 | 73 | 166 | 1.7 | 12.2 | 0.00 | 0.01 | 0.00 | 69 | 1015.3 |
| 20260903102204 | 74 | 195 | 1.7 | 7.8 | 0.00 | 0.01 | 0.00 | 69 | 1015.4 |
| 20260903101703 | 73 | 244 | 1.7 | 7.8 | 0.00 | 0.01 | 0.00 | 70 | 1015.4 |
| 20260903101204 | 73 | 157 | 1.7 | 9.6 | 0.00 | 0.01 | 0.00 | 72 | 1015.3 |
| 20260903100726 | 72 | 247 | 2.6 | 9.6 | 0.00 | 0.01 | 0.00 | 72 | 1015.4 |
| 20260903100204 | 71 | 226 | 2.6 | 11.3 | 0.00 | 0.01 | 0.00 | 73 | 1015.4 |
| 20260903095704 | 71 | 168 | 2.6 | 11.3 | 0.00 | 0.01 | 0.00 | 73 | 1015.3 |
| 20260903095204 | 71 | 223 | 1.7 | 13.0 | 0.00 | 0.01 | 0.00 | 74 | 1015.6 |
| 20260903094704 | 71 | 250 | 3.5 | 13.0 | 0.00 | 0.01 | 0.00 | 73 | 1015.5 |
| 20260903094204 | 71 | 250 | 5.2 | 13.9 | 0.00 | 0.01 | 0.00 | 73 | 1015.4 |
| 20260903093204 | 71 | 234 | 4.3 | 13.9 | 0.00 | 0.01 | 0.00 | 74 | 1015.6 |
| 20260903092704 | 71 | 240 | 3.5 | 11.3 | 0.00 | 0.01 | 0.00 | 74 | 1015.6 |
| 20260903092204 | 70 | 237 | 4.3 | 11.3 | 0.00 | 0.01 | 0.00 | 75 | 1015.5 |
| 20260903091705 | 70 | 302 | 5.2 | 11.3 | 0.00 | 0.01 | 0.00 | 75 | 1015.6 |
| 20260903091204 | 70 | 223 | 3.5 | 12.2 | 0.00 | 0.01 | 0.00 | 75 | 1015.6 |